OKEAN-4
1 23317U 94066A   05188.06394571  .00000380  00000-0  44432-4 0  6717
2 23317 082.5387 238.8484 0024115 072.1440 288.2414 14.82180398578855
OKEAN-0
1 25860U 99039A   05188.06627354  .00000141  00000-0  29065-4 0  4780
2 25860 097.7555 213.0847 0001910 108.9124 251.2292 14.73265242320938
MET-3/5
1 21655U 91056A   05188.31020225  .00000051  00000-0  10000-3 0  8592
2 21655 082.5556 144.4545 0012936 178.6626 181.4567 13.17000408667966
NOAA-16
1 26536U 00055A   05188.33970112  .00000009  00000-0  29567-4 0  4144
2 26536 099.0141 146.9030 0010611 016.2205 343.9313 14.12253496246900
NOAA-15
1 25338U 98030A   05188.43938876  .00000100  00000-0  61519-4 0   977
2 25338 098.5119 196.1565 0009688 304.2091 055.8175 14.24523319371634
NOAA-11
1 19531U 88089A   05188.45053990 -.00000020  00000-0  12558-4 0  6455
2 19531 098.8458 275.3051 0010876 247.6085 112.3968 14.14758111865798
NOAA-17
1 27453U 02032A   05188.45937924  .00000200  00000-0  10679-3 0  4367
2 27453 098.6598 261.6646 0011518 001.4425 358.6817 14.23680987157729
NOAA-14
1 23455U 94089A   05188.46171944  .00000338  00000-0  20384-3 0  6583
2 23455 099.0876 237.1215 0008468 304.7282 055.3097 14.13579480542364
NOAA-12
1 21263U 91032A   05188.46446894 -.00000119  00000-0 -31805-4 0  1374
2 21263 098.6998 178.7218 0012930 015.0972 345.0603 14.25464418735137
NOAA-10
1 16969U 86073A   05188.51789212  .00000027  00000-0  29186-4 0  7898
2 16969 098.7617 194.3282 0013420 076.0192 284.2466 14.27261271977991
WO-39
1 26061U 00004A   03303.41062303  .00002252  00000-0  75720-3 0  9734
2 26061 100.1904 047.3011 0034615 281.6926 078.0378 14.38082544197011
NO-45
1 26932U 01043D   05187.52837547  .00000035  00000-0  46144-4 0   725
2 26932 067.0561 177.6395 0006475 243.3825 116.6626 14.29491349196567
UARS
1 21701U 91063B   05187.87216789 -.00000084  00000-0  12596-4 0 04769
2 21701 056.9797 110.2537 0005638 080.9459 279.2216 15.03853590756457
PO-34
1 25520U 98064B   05188.18579849  .00001020  00000-0  41405-4 0  2202
2 25520 028.4576 178.5867 0005773 086.7462 273.3795 15.16336654369627
OO-38
1 26063U 00004C   05188.19753270  .00000049  00000-0  37207-4 0  3830
2 26063 100.2155 051.9013 0036958 359.5724 000.5414 14.35724768285161
HUBBLE
1 20580U 90037B   05188.22185692  .00000630  00000-0  36706-4 0  3776
2 20580 028.4657 138.2303 0004050 122.9217 237.1761 14.99764597633259
ISS
1 25544U 98067A   05188.62268519  .00015741  00000-0  12523-3 0  8578
2 25544 051.6439 156.1766 0003390 093.8378 251.1741 15.71408319378890
